Year,Month,Day,Hour,Minute,Value (Times are PST for temperature in C)
2011,07,24,00,00,11.40
2011,07,24,00,01,11.40
2011,07,24,00,02,11.40
2011,07,24,00,03,11.40
2011,07,24,00,04,11.40
2011,07,24,00,05,11.40
2011,07,24,00,06,11.40
2011,07,24,00,07,11.40
2011,07,24,00,08,11.40
2011,07,24,00,09,11.40
2011,07,24,00,10,11.30
2011,07,24,00,11,11.30
2011,07,24,00,12,11.30
2011,07,24,00,13,11.30
2011,07,24,00,14,11.20
2011,07,24,00,15,11.20
2011,07,24,00,16,11.20
2011,07,24,00,17,11.20
2011,07,24,00,18,11.10
2011,07,24,00,19,11.10
2011,07,24,00,20,11.10
2011,07,24,00,21,11.10
2011,07,24,00,22,11.10
2011,07,24,00,23,11.10
2011,07,24,00,24,11.00
2011,07,24,00,25,10.90
2011,07,24,00,26,10.90
2011,07,24,00,27,10.90
2011,07,24,00,28,10.90
2011,07,24,00,29,10.90
2011,07,24,00,30,10.90
2011,07,24,00,31,10.90
2011,07,24,00,32,10.90
2011,07,24,00,33,10.90
2011,07,24,00,34,10.90
2011,07,24,00,35,10.90
2011,07,24,00,36,10.80
2011,07,24,00,37,10.80
2011,07,24,00,38,10.80
2011,07,24,00,39,10.80
2011,07,24,00,40,10.80
2011,07,24,00,41,10.80
2011,07,24,00,42,10.70
2011,07,24,00,43,10.70
2011,07,24,00,44,10.70
2011,07,24,00,45,10.70
2011,07,24,00,46,10.60
2011,07,24,00,47,10.60
2011,07,24,00,48,10.60
2011,07,24,00,49,10.60
2011,07,24,00,50,10.60
2011,07,24,00,51,10.60
2011,07,24,00,52,10.60
2011,07,24,00,53,10.60
2011,07,24,00,54,10.60
2011,07,24,00,55,10.60
2011,07,24,00,56,10.60
2011,07,24,00,57,10.60
2011,07,24,00,58,10.50
2011,07,24,00,59,10.40
2011,07,24,01,00,10.40
2011,07,24,01,01,10.40
2011,07,24,01,02,10.40
2011,07,24,01,03,10.40
2011,07,24,01,04,10.40
2011,07,24,01,05,10.40
2011,07,24,01,06,10.40
2011,07,24,01,07,10.40
2011,07,24,01,08,10.40
2011,07,24,01,09,10.40
2011,07,24,01,10,10.40
2011,07,24,01,11,10.40
2011,07,24,01,12,10.40
2011,07,24,01,13,10.40
2011,07,24,01,14,10.40
2011,07,24,01,15,10.50
2011,07,24,01,16,10.60
2011,07,24,01,17,10.60
2011,07,24,01,18,10.60
2011,07,24,01,19,10.60
2011,07,24,01,20,10.60
2011,07,24,01,21,10.60
2011,07,24,01,22,10.60
2011,07,24,01,23,10.60
2011,07,24,01,24,10.60
2011,07,24,01,25,10.60
2011,07,24,01,26,10.60
2011,07,24,01,27,10.60
2011,07,24,01,28,10.60
2011,07,24,01,29,10.60
2011,07,24,01,30,10.60
2011,07,24,01,31,10.60
2011,07,24,01,32,10.60
2011,07,24,01,33,10.60
2011,07,24,01,34,10.60
2011,07,24,01,35,10.50
2011,07,24,01,36,10.40
2011,07,24,01,37,10.40
2011,07,24,01,38,10.40
2011,07,24,01,39,10.40
2011,07,24,01,40,10.40
2011,07,24,01,41,10.40
2011,07,24,01,42,10.40
2011,07,24,01,43,10.40
2011,07,24,01,44,10.40
2011,07,24,01,45,10.40
2011,07,24,01,46,10.40
2011,07,24,01,47,10.40
2011,07,24,01,48,10.40
2011,07,24,01,49,10.40
2011,07,24,01,50,10.40
2011,07,24,01,51,10.40
2011,07,24,01,52,10.40
2011,07,24,01,53,10.40
2011,07,24,01,54,10.40
2011,07,24,01,55,10.40
2011,07,24,01,56,10.40
2011,07,24,01,57,10.40
2011,07,24,01,58,10.40
2011,07,24,01,59,10.40
2011,07,24,02,00,10.40
2011,07,24,02,01,10.40
2011,07,24,02,02,10.40
2011,07,24,02,03,10.60
2011,07,24,02,04,10.60
2011,07,24,02,05,10.60
2011,07,24,02,06,10.60
2011,07,24,02,07,10.60
2011,07,24,02,08,10.60
2011,07,24,02,09,10.60
2011,07,24,02,10,10.60
2011,07,24,02,11,10.60
2011,07,24,02,12,10.60
2011,07,24,02,13,10.50
2011,07,24,02,14,10.40
2011,07,24,02,15,10.40
2011,07,24,02,16,10.40
2011,07,24,02,17,10.40
2011,07,24,02,18,10.40
2011,07,24,02,19,10.40
2011,07,24,02,20,10.40
2011,07,24,02,21,10.30
2011,07,24,02,22,10.30
2011,07,24,02,23,10.30
2011,07,24,02,24,10.30
2011,07,24,02,25,10.20
2011,07,24,02,26,10.20
2011,07,24,02,27,10.20
2011,07,24,02,28,10.20
2011,07,24,02,29,10.30
2011,07,24,02,30,10.30
2011,07,24,02,31,10.30
2011,07,24,02,32,10.20
2011,07,24,02,33,10.20
2011,07,24,02,34,10.20
2011,07,24,02,35,10.20
2011,07,24,02,36,10.20
2011,07,24,02,37,10.20
2011,07,24,02,38,10.20
2011,07,24,02,39,10.20
2011,07,24,02,40,10.20
2011,07,24,02,41,10.20
2011,07,24,02,42,10.20
2011,07,24,02,43,10.20
2011,07,24,02,44,10.20
2011,07,24,02,45,10.20
2011,07,24,02,46,10.10
2011,07,24,02,47,10.10
2011,07,24,02,48,10.10
2011,07,24,02,49,10.10
2011,07,24,02,50,10.10
2011,07,24,02,51,10.10
2011,07,24,02,52,10.10
2011,07,24,02,53,10.10
2011,07,24,02,54,10.10
2011,07,24,02,55,10.10
2011,07,24,02,56,10.10
2011,07,24,02,57,10.10
2011,07,24,02,58,10.10
2011,07,24,02,59,10.10
2011,07,24,03,00,10.10
2011,07,24,03,01,10.10
2011,07,24,03,02,10.10
2011,07,24,03,03,10.10
2011,07,24,03,04,10.10
2011,07,24,03,05,10.10
2011,07,24,03,06,10.10
2011,07,24,03,07,10.10
2011,07,24,03,08,10.10
2011,07,24,03,09,10.10
2011,07,24,03,10,10.10
2011,07,24,03,11,10.10
2011,07,24,03,12,10.10
2011,07,24,03,13,10.10
2011,07,24,03,14,10.10
2011,07,24,03,15,10.10
2011,07,24,03,16,10.10
2011,07,24,03,17,10.10
2011,07,24,03,18,10.10
2011,07,24,03,19,10.10
2011,07,24,03,20,10.10
2011,07,24,03,21,10.10
2011,07,24,03,22,10.10
2011,07,24,03,23,10.10
2011,07,24,03,24,10.10
2011,07,24,03,25,10.10
2011,07,24,03,26,10.10
2011,07,24,03,27,10.10
2011,07,24,03,28,10.10
2011,07,24,03,29,10.10
2011,07,24,03,30,10.10
2011,07,24,03,31,10.10
2011,07,24,03,32,10.20
2011,07,24,03,33,10.20
2011,07,24,03,34,10.20
2011,07,24,03,35,10.20
2011,07,24,03,36,10.20
2011,07,24,03,37,10.20
2011,07,24,03,38,10.30
2011,07,24,03,39,10.30
2011,07,24,03,40,10.40
2011,07,24,03,41,10.40
2011,07,24,03,42,10.40
2011,07,24,03,43,10.40
2011,07,24,03,44,10.40
2011,07,24,03,45,10.40
2011,07,24,03,46,10.40
2011,07,24,03,47,10.40
2011,07,24,03,48,10.40
2011,07,24,03,49,10.40
2011,07,24,03,50,10.40
2011,07,24,03,51,10.40
2011,07,24,03,52,10.40
2011,07,24,03,53,10.40
2011,07,24,03,54,10.40
2011,07,24,03,55,10.40
2011,07,24,03,56,10.50
2011,07,24,03,57,10.60
2011,07,24,03,58,10.70
2011,07,24,03,59,10.80
2011,07,24,04,00,10.90
2011,07,24,04,01,10.90
2011,07,24,04,02,10.90
2011,07,24,04,03,11.00
2011,07,24,04,04,11.10
2011,07,24,04,05,11.20
2011,07,24,04,06,11.30
2011,07,24,04,07,11.40
2011,07,24,04,08,11.40
2011,07,24,04,09,11.60
2011,07,24,04,10,11.60
2011,07,24,04,11,11.70
2011,07,24,04,12,11.80
2011,07,24,04,13,11.90
2011,07,24,04,14,12.00
2011,07,24,04,15,12.10
2011,07,24,04,16,12.30
2011,07,24,04,17,12.30
2011,07,24,04,18,12.50
2011,07,24,04,19,12.50
2011,07,24,04,20,12.60
2011,07,24,04,21,12.60
2011,07,24,04,22,12.70
2011,07,24,04,23,12.70
2011,07,24,04,24,12.70
2011,07,24,04,25,12.70
2011,07,24,04,26,12.80
2011,07,24,04,27,12.80
2011,07,24,04,28,12.80
2011,07,24,04,29,12.80
2011,07,24,04,30,12.80
2011,07,24,04,31,12.80
2011,07,24,04,32,12.80
2011,07,24,04,33,12.80
2011,07,24,04,34,12.70
2011,07,24,04,35,12.60
2011,07,24,04,36,12.50
2011,07,24,04,37,12.40
2011,07,24,04,38,12.30
2011,07,24,04,39,12.20
2011,07,24,04,40,12.10
2011,07,24,04,41,12.00
2011,07,24,04,42,12.00
2011,07,24,04,43,11.90
2011,07,24,04,44,11.80
2011,07,24,04,45,11.80
2011,07,24,04,46,11.80
2011,07,24,04,47,11.70
2011,07,24,04,48,11.60
2011,07,24,04,49,11.60
2011,07,24,04,50,11.60
2011,07,24,04,51,11.60
2011,07,24,04,52,11.60
2011,07,24,04,53,11.50
2011,07,24,04,54,11.40
2011,07,24,04,55,11.40
2011,07,24,04,56,11.40
2011,07,24,04,57,11.40
2011,07,24,04,58,11.40
2011,07,24,04,59,11.40
2011,07,24,05,00,11.40
2011,07,24,05,01,11.40
2011,07,24,05,02,11.40
2011,07,24,05,03,11.40
2011,07,24,05,04,11.40
2011,07,24,05,05,11.50
2011,07,24,05,06,11.60
2011,07,24,05,07,11.60
2011,07,24,05,08,11.60
2011,07,24,05,09,11.60
2011,07,24,05,10,11.70
2011,07,24,05,11,11.80
2011,07,24,05,12,11.90
2011,07,24,05,13,12.00
2011,07,24,05,14,12.20
2011,07,24,05,15,12.30
2011,07,24,05,16,12.40
2011,07,24,05,17,12.50
2011,07,24,05,18,12.60
2011,07,24,05,19,12.70
2011,07,24,05,20,12.80
2011,07,24,05,21,12.90
2011,07,24,05,22,13.00
2011,07,24,05,23,13.00
2011,07,24,05,24,13.10
2011,07,24,05,25,13.10
2011,07,24,05,26,13.20
2011,07,24,05,27,13.20
2011,07,24,05,28,13.20
2011,07,24,05,29,13.20
2011,07,24,05,30,13.10
2011,07,24,05,31,13.00
2011,07,24,05,32,12.90
2011,07,24,05,33,12.80
2011,07,24,05,34,12.70
2011,07,24,05,35,12.60
2011,07,24,05,36,12.50
2011,07,24,05,37,12.50
2011,07,24,05,38,12.40
2011,07,24,05,39,12.40
2011,07,24,05,40,12.30
2011,07,24,05,41,12.30
2011,07,24,05,42,12.30
2011,07,24,05,43,12.30
2011,07,24,05,44,12.30
2011,07,24,05,45,12.20
2011,07,24,05,46,12.20
2011,07,24,05,47,12.10
2011,07,24,05,48,12.10
2011,07,24,05,49,12.10
2011,07,24,05,50,12.10
2011,07,24,05,51,12.00
2011,07,24,05,52,12.00
2011,07,24,05,53,12.10
2011,07,24,05,54,12.00
2011,07,24,05,55,12.00
2011,07,24,05,56,12.00
2011,07,24,05,57,12.00
2011,07,24,05,58,12.10
2011,07,24,05,59,12.10
2011,07,24,06,00,12.10
2011,07,24,06,01,12.00
2011,07,24,06,02,12.00
2011,07,24,06,03,11.90
2011,07,24,06,04,11.80
2011,07,24,06,05,11.70
2011,07,24,06,06,11.60
2011,07,24,06,07,11.60
2011,07,24,06,08,11.60
2011,07,24,06,09,11.70
2011,07,24,06,10,11.80
2011,07,24,06,11,11.80
2011,07,24,06,12,11.90
2011,07,24,06,13,12.00
2011,07,24,06,14,12.10
2011,07,24,06,15,12.10
2011,07,24,06,16,12.20
2011,07,24,06,17,12.20
2011,07,24,06,18,12.30
2011,07,24,06,19,12.30
2011,07,24,06,20,12.30
2011,07,24,06,21,12.30
2011,07,24,06,22,12.20
2011,07,24,06,23,12.10
2011,07,24,06,24,12.10
2011,07,24,06,25,12.10
2011,07,24,06,26,12.00
2011,07,24,06,27,12.00
2011,07,24,06,28,12.00
2011,07,24,06,29,12.00
2011,07,24,06,30,12.00
2011,07,24,06,31,12.00
2011,07,24,06,32,12.00
2011,07,24,06,33,12.00
2011,07,24,06,34,12.10
2011,07,24,06,35,12.10
2011,07,24,06,36,12.10
2011,07,24,06,37,12.20
2011,07,24,06,38,12.20
2011,07,24,06,39,12.30
2011,07,24,06,40,12.30
2011,07,24,06,41,12.40
2011,07,24,06,42,12.50
2011,07,24,06,43,12.60
2011,07,24,06,44,12.70
2011,07,24,06,45,12.80
2011,07,24,06,46,12.90
2011,07,24,06,47,12.90
2011,07,24,06,48,13.00
2011,07,24,06,49,13.00
2011,07,24,06,50,13.10
2011,07,24,06,51,13.10
2011,07,24,06,52,13.20
2011,07,24,06,53,13.20
2011,07,24,06,54,13.20
2011,07,24,06,55,13.30
2011,07,24,06,56,13.30
2011,07,24,06,57,13.30
2011,07,24,06,58,13.30
2011,07,24,06,59,13.30
2011,07,24,07,00,13.30
2011,07,24,07,01,13.30
2011,07,24,07,02,13.40
2011,07,24,07,03,13.40
2011,07,24,07,04,13.40
2011,07,24,07,05,13.40
2011,07,24,07,06,13.50
2011,07,24,07,07,13.50
2011,07,24,07,08,13.60
2011,07,24,07,09,13.70
2011,07,24,07,10,13.70
2011,07,24,07,11,13.70
2011,07,24,07,12,13.80
2011,07,24,07,13,13.80
2011,07,24,07,14,13.90
2011,07,24,07,15,13.90
2011,07,24,07,16,14.00
2011,07,24,07,17,14.00
2011,07,24,07,18,14.10
2011,07,24,07,19,14.20
2011,07,24,07,20,14.30
2011,07,24,07,21,14.40
2011,07,24,07,22,14.50
2011,07,24,07,23,14.60
2011,07,24,07,24,14.70
2011,07,24,07,25,14.80
2011,07,24,07,26,14.80
2011,07,24,07,27,14.80
2011,07,24,07,28,14.90
2011,07,24,07,29,15.00
2011,07,24,07,30,15.00
2011,07,24,07,31,15.10
2011,07,24,07,32,15.20
2011,07,24,07,33,15.30
2011,07,24,07,34,15.40
2011,07,24,07,35,15.50
2011,07,24,07,36,15.60
2011,07,24,07,37,15.70
2011,07,24,07,38,15.80
2011,07,24,07,39,15.90
2011,07,24,07,40,16.00
2011,07,24,07,41,16.10
2011,07,24,07,42,16.20
2011,07,24,07,43,16.30
2011,07,24,07,44,16.30
2011,07,24,07,45,16.40
2011,07,24,07,46,16.50
2011,07,24,07,47,16.60
2011,07,24,07,48,16.70
2011,07,24,07,49,16.70
2011,07,24,07,50,16.80
2011,07,24,07,51,16.90
2011,07,24,07,52,16.90
2011,07,24,07,53,16.90
2011,07,24,07,54,17.00
2011,07,24,07,55,17.00
2011,07,24,07,56,17.10
2011,07,24,07,57,17.10
2011,07,24,07,58,17.20
2011,07,24,07,59,17.30
2011,07,24,08,00,17.30
2011,07,24,08,01,17.30
2011,07,24,08,02,17.30
2011,07,24,08,03,17.40
2011,07,24,08,04,17.40
2011,07,24,08,05,17.40
2011,07,24,08,06,17.50
2011,07,24,08,07,17.50
2011,07,24,08,08,17.50
2011,07,24,08,09,17.50
2011,07,24,08,10,17.60
2011,07,24,08,11,17.60
2011,07,24,08,12,17.60
2011,07,24,08,13,17.70
2011,07,24,08,14,17.70
2011,07,24,08,15,17.80
2011,07,24,08,16,17.80
2011,07,24,08,17,17.90
2011,07,24,08,18,17.90
2011,07,24,08,19,17.90
2011,07,24,08,20,17.90
2011,07,24,08,21,18.00
2011,07,24,08,22,18.10
2011,07,24,08,23,18.10
2011,07,24,08,24,18.10
2011,07,24,08,25,18.20
2011,07,24,08,26,18.20
2011,07,24,08,27,18.20
2011,07,24,08,28,18.40
2011,07,24,08,29,18.40
2011,07,24,08,30,18.50
2011,07,24,08,31,18.50
2011,07,24,08,32,18.50
2011,07,24,08,33,18.50
2011,07,24,08,34,18.50
2011,07,24,08,35,18.50
2011,07,24,08,36,18.60
2011,07,24,08,37,18.60
2011,07,24,08,38,18.60
2011,07,24,08,39,18.60
2011,07,24,08,40,18.60
2011,07,24,08,41,18.70
2011,07,24,08,42,18.70
2011,07,24,08,43,18.70
2011,07,24,08,44,18.60
2011,07,24,08,45,18.70
2011,07,24,08,46,18.70
2011,07,24,08,47,18.70
2011,07,24,08,48,18.80
2011,07,24,08,49,18.80
2011,07,24,08,50,18.90
2011,07,24,08,51,19.00
2011,07,24,08,52,19.10
2011,07,24,08,53,19.00
2011,07,24,08,54,18.90
2011,07,24,08,55,18.90
2011,07,24,08,56,18.90
2011,07,24,08,57,18.90
2011,07,24,08,58,18.90
2011,07,24,08,59,18.90
2011,07,24,09,00,18.90
2011,07,24,09,01,18.80
2011,07,24,09,02,18.80
2011,07,24,09,03,18.80
2011,07,24,09,04,18.80
2011,07,24,09,05,18.70
2011,07,24,09,06,18.60
2011,07,24,09,07,18.60
2011,07,24,09,08,18.60
2011,07,24,09,09,18.60
2011,07,24,09,10,18.50
2011,07,24,09,11,18.50
2011,07,24,09,12,18.50
2011,07,24,09,13,18.50
2011,07,24,09,14,18.50
2011,07,24,09,15,18.50
2011,07,24,09,16,18.30
2011,07,24,09,17,18.10
2011,07,24,09,18,17.90
2011,07,24,09,19,17.80
2011,07,24,09,20,17.60
2011,07,24,09,21,17.50
2011,07,24,09,22,17.40
2011,07,24,09,23,17.30
2011,07,24,09,24,17.30
2011,07,24,09,25,17.30
2011,07,24,09,26,17.30
2011,07,24,09,27,17.40
2011,07,24,09,28,17.40
2011,07,24,09,29,17.50
2011,07,24,09,30,17.60
2011,07,24,09,31,17.60
2011,07,24,09,32,17.60
2011,07,24,09,33,17.70
2011,07,24,09,34,17.70
2011,07,24,09,35,17.70
2011,07,24,09,36,17.70
2011,07,24,09,37,17.60
2011,07,24,09,38,17.60
2011,07,24,09,39,17.60
2011,07,24,09,40,17.60
2011,07,24,09,41,17.60
2011,07,24,09,42,17.60
2011,07,24,09,43,17.60
2011,07,24,09,44,17.70
2011,07,24,09,45,17.70
2011,07,24,09,46,17.70
2011,07,24,09,47,17.70
2011,07,24,09,48,17.70
2011,07,24,09,49,17.60
2011,07,24,09,50,17.60
2011,07,24,09,51,17.50
2011,07,24,09,52,17.40
2011,07,24,09,53,17.30
2011,07,24,09,54,17.30
2011,07,24,09,55,17.30
2011,07,24,09,56,17.10
2011,07,24,09,57,17.00
2011,07,24,09,58,17.00
2011,07,24,09,59,17.00
2011,07,24,10,00,17.10
2011,07,24,10,01,17.10
2011,07,24,10,02,17.20
2011,07,24,10,03,17.20
2011,07,24,10,04,17.20
2011,07,24,10,05,17.20
2011,07,24,10,06,17.20
2011,07,24,10,07,17.20
2011,07,24,10,08,17.20
2011,07,24,10,09,17.20
2011,07,24,10,10,17.20
2011,07,24,10,11,17.20
2011,07,24,10,12,17.20
2011,07,24,10,13,17.20
2011,07,24,10,14,17.30
2011,07,24,10,15,17.30
2011,07,24,10,16,17.30
2011,07,24,10,17,17.30
2011,07,24,10,18,17.30
2011,07,24,10,19,17.30
2011,07,24,10,20,17.40
2011,07,24,10,21,17.40
2011,07,24,10,22,17.30
2011,07,24,10,23,17.30
2011,07,24,10,24,17.30
2011,07,24,10,25,17.20
2011,07,24,10,26,17.20
2011,07,24,10,27,17.20
2011,07,24,10,28,17.10
2011,07,24,10,29,17.00
2011,07,24,10,30,17.00
2011,07,24,10,31,17.00
2011,07,24,10,32,17.00
2011,07,24,10,33,17.10
2011,07,24,10,34,17.00
2011,07,24,10,35,17.00
2011,07,24,10,36,17.10
2011,07,24,10,37,17.10
2011,07,24,10,38,17.10
2011,07,24,10,39,17.10
2011,07,24,10,40,17.10
2011,07,24,10,41,17.10
2011,07,24,10,42,17.10
2011,07,24,10,43,17.10
2011,07,24,10,44,17.10
2011,07,24,10,45,17.10
2011,07,24,10,46,17.00
2011,07,24,10,47,17.00
2011,07,24,10,48,16.90
2011,07,24,10,49,16.90
2011,07,24,10,50,17.00
2011,07,24,10,51,17.00
2011,07,24,10,52,17.00
2011,07,24,10,53,17.00
2011,07,24,10,54,17.00
2011,07,24,10,55,17.00
2011,07,24,10,56,16.90
2011,07,24,10,57,17.00
2011,07,24,10,58,17.10
2011,07,24,10,59,17.10
2011,07,24,11,00,17.10
2011,07,24,11,01,17.20
2011,07,24,11,02,17.20
2011,07,24,11,03,17.20
2011,07,24,11,04,17.30
2011,07,24,11,05,17.20
2011,07,24,11,06,17.30
2011,07,24,11,07,17.30
2011,07,24,11,08,17.30
2011,07,24,11,09,17.30
2011,07,24,11,10,17.30
2011,07,24,11,11,17.30
2011,07,24,11,12,17.40
2011,07,24,11,13,17.40
2011,07,24,11,14,17.50
2011,07,24,11,15,17.50
2011,07,24,11,16,17.50
2011,07,24,11,17,17.70
2011,07,24,11,18,17.70
2011,07,24,11,19,17.80
2011,07,24,11,20,17.90
2011,07,24,11,21,17.90
2011,07,24,11,22,17.90
2011,07,24,11,23,18.00
2011,07,24,11,24,18.10
2011,07,24,11,25,18.20
2011,07,24,11,26,18.20
2011,07,24,11,27,18.20
2011,07,24,11,28,18.20
2011,07,24,11,29,18.20
2011,07,24,11,30,18.20
2011,07,24,11,31,18.20
2011,07,24,11,32,18.20
2011,07,24,11,33,18.20
2011,07,24,11,34,18.20
2011,07,24,11,35,18.10
2011,07,24,11,36,18.00
2011,07,24,11,37,17.90
2011,07,24,11,38,17.80
2011,07,24,11,39,17.80
2011,07,24,11,40,17.80
2011,07,24,11,41,17.90
2011,07,24,11,42,17.90
2011,07,24,11,43,17.90
2011,07,24,11,44,17.80
2011,07,24,11,45,17.90
2011,07,24,11,46,17.90
2011,07,24,11,47,18.00
2011,07,24,11,48,18.10
2011,07,24,11,49,18.10
2011,07,24,11,50,18.10
2011,07,24,11,51,18.20
2011,07,24,11,52,18.20
2011,07,24,11,53,18.20
2011,07,24,11,54,18.20
2011,07,24,11,55,18.20
2011,07,24,11,56,18.20
2011,07,24,11,57,18.20
2011,07,24,11,58,18.20
2011,07,24,11,59,18.30
2011,07,24,12,00,18.30
2011,07,24,12,01,18.20
2011,07,24,12,02,18.20
2011,07,24,12,03,18.20
2011,07,24,12,04,18.20
2011,07,24,12,05,18.20
2011,07,24,12,06,18.20
2011,07,24,12,07,18.30
2011,07,24,12,08,18.20
2011,07,24,12,09,18.20
2011,07,24,12,10,18.20
2011,07,24,12,11,18.20
2011,07,24,12,12,18.20
2011,07,24,12,13,18.20
2011,07,24,12,14,18.20
2011,07,24,12,15,18.10
2011,07,24,12,16,18.00
2011,07,24,12,17,17.90
2011,07,24,12,18,17.90
2011,07,24,12,19,17.90
2011,07,24,12,20,17.90
2011,07,24,12,21,17.90
2011,07,24,12,22,17.90
2011,07,24,12,23,17.90
2011,07,24,12,24,18.00
2011,07,24,12,25,18.00
2011,07,24,12,26,17.90
2011,07,24,12,27,17.90
2011,07,24,12,28,17.90
2011,07,24,12,29,18.10
2011,07,24,12,30,18.10
2011,07,24,12,31,18.10
2011,07,24,12,32,18.00
2011,07,24,12,33,17.90
2011,07,24,12,34,17.90
2011,07,24,12,35,18.00
2011,07,24,12,36,17.90
2011,07,24,12,37,18.10
2011,07,24,12,38,18.20
2011,07,24,12,39,18.40
2011,07,24,12,40,18.50
2011,07,24,12,41,18.60
2011,07,24,12,42,18.60
2011,07,24,12,43,18.60
2011,07,24,12,44,18.60
2011,07,24,12,45,18.70
2011,07,24,12,46,18.70
2011,07,24,12,47,18.70
2011,07,24,12,48,18.70
2011,07,24,12,49,18.70
2011,07,24,12,50,18.70
2011,07,24,12,51,18.70
2011,07,24,12,52,18.70
2011,07,24,12,53,18.80
2011,07,24,12,54,18.90
2011,07,24,12,55,18.90
2011,07,24,12,56,19.10
2011,07,24,12,57,19.10
2011,07,24,12,58,19.10
2011,07,24,12,59,19.10
2011,07,24,13,00,19.10
2011,07,24,13,01,19.20
2011,07,24,13,02,19.30
2011,07,24,13,03,19.40
2011,07,24,13,04,19.40
2011,07,24,13,05,19.30
2011,07,24,13,06,19.10
2011,07,24,13,07,19.10
2011,07,24,13,08,19.10
2011,07,24,13,09,19.10
2011,07,24,13,10,19.10
2011,07,24,13,11,19.10
2011,07,24,13,12,19.30
2011,07,24,13,13,19.40
2011,07,24,13,14,19.40
2011,07,24,13,15,19.40
2011,07,24,13,16,19.40
2011,07,24,13,17,19.30
2011,07,24,13,18,19.40
2011,07,24,13,19,19.40
2011,07,24,13,20,19.50
2011,07,24,13,21,19.60
2011,07,24,13,22,19.60
2011,07,24,13,23,19.50
2011,07,24,13,24,19.50
2011,07,24,13,25,19.50
2011,07,24,13,26,19.60
2011,07,24,13,27,19.60
2011,07,24,13,28,19.70
2011,07,24,13,29,19.80
2011,07,24,13,30,19.90
2011,07,24,13,31,19.80
2011,07,24,13,32,19.70
2011,07,24,13,33,19.60
2011,07,24,13,34,19.60
2011,07,24,13,35,19.60
2011,07,24,13,36,19.70
2011,07,24,13,37,19.80
2011,07,24,13,38,19.90
2011,07,24,13,39,19.90
2011,07,24,13,40,19.90
2011,07,24,13,41,19.90
2011,07,24,13,42,19.90
2011,07,24,13,43,19.90
2011,07,24,13,44,19.90
2011,07,24,13,45,19.90
2011,07,24,13,46,20.00
2011,07,24,13,47,20.20
2011,07,24,13,48,20.20
2011,07,24,13,49,20.20
2011,07,24,13,50,20.30
2011,07,24,13,51,20.40
2011,07,24,13,52,20.40
2011,07,24,13,53,20.40
2011,07,24,13,54,20.40
2011,07,24,13,55,20.40
2011,07,24,13,56,20.40
2011,07,24,13,57,20.30
2011,07,24,13,58,20.30
2011,07,24,13,59,20.40
2011,07,24,14,00,20.40
2011,07,24,14,01,20.40
2011,07,24,14,02,20.40
2011,07,24,14,03,20.30
2011,07,24,14,04,20.30
2011,07,24,14,05,20.20
2011,07,24,14,06,20.20
2011,07,24,14,07,20.20
2011,07,24,14,08,20.20
2011,07,24,14,09,20.20
2011,07,24,14,10,20.30
2011,07,24,14,11,20.40
2011,07,24,14,12,20.40
2011,07,24,14,13,20.50
2011,07,24,14,14,20.60
2011,07,24,14,15,20.70
2011,07,24,14,16,20.70
2011,07,24,14,17,20.60
2011,07,24,14,18,20.60
2011,07,24,14,19,20.60
2011,07,24,14,20,20.60
2011,07,24,14,21,20.60
2011,07,24,14,22,20.60
2011,07,24,14,23,20.60
2011,07,24,14,24,20.60
2011,07,24,14,25,20.60
2011,07,24,14,26,20.60
2011,07,24,14,27,20.60
2011,07,24,14,28,20.70
2011,07,24,14,29,20.80
2011,07,24,14,30,20.90
2011,07,24,14,31,20.90
2011,07,24,14,32,20.90
2011,07,24,14,33,20.90
2011,07,24,14,34,20.90
2011,07,24,14,35,20.90
2011,07,24,14,36,20.90
2011,07,24,14,37,20.90
2011,07,24,14,38,20.90
2011,07,24,14,39,20.80
2011,07,24,14,40,20.80
2011,07,24,14,41,20.70
2011,07,24,14,42,20.70
2011,07,24,14,43,20.70
2011,07,24,14,44,20.80
2011,07,24,14,45,20.90
2011,07,24,14,46,21.00
2011,07,24,14,47,21.10
2011,07,24,14,48,21.20
2011,07,24,14,49,21.30
2011,07,24,14,50,21.30
2011,07,24,14,51,21.30
2011,07,24,14,52,21.40
2011,07,24,14,53,21.60
2011,07,24,14,54,21.60
2011,07,24,14,55,21.60
2011,07,24,14,56,21.60
2011,07,24,14,57,21.50
2011,07,24,14,58,21.40
2011,07,24,14,59,21.40
2011,07,24,15,00,21.30
2011,07,24,15,01,21.30
2011,07,24,15,02,21.40
2011,07,24,15,03,21.40
2011,07,24,15,04,21.50
2011,07,24,15,05,21.50
2011,07,24,15,06,21.40
2011,07,24,15,07,21.40
2011,07,24,15,08,21.50
2011,07,24,15,09,21.60
2011,07,24,15,10,21.60
2011,07,24,15,11,21.60
2011,07,24,15,12,21.70
2011,07,24,15,13,21.70
2011,07,24,15,14,21.80
2011,07,24,15,15,21.80
2011,07,24,15,16,21.80
2011,07,24,15,17,21.80
2011,07,24,15,18,22.00
2011,07,24,15,19,22.00
2011,07,24,15,20,22.10
2011,07,24,15,21,22.10
2011,07,24,15,22,22.10
2011,07,24,15,23,22.10
2011,07,24,15,24,22.30
2011,07,24,15,25,22.30
2011,07,24,15,26,22.50
2011,07,24,15,27,22.60
2011,07,24,15,28,22.70
2011,07,24,15,29,22.70
2011,07,24,15,30,22.70
2011,07,24,15,31,22.80
2011,07,24,15,32,22.90
2011,07,24,15,33,22.80
2011,07,24,15,34,22.70
2011,07,24,15,35,22.50
2011,07,24,15,36,22.40
2011,07,24,15,37,22.30
2011,07,24,15,38,22.10
2011,07,24,15,39,22.00
2011,07,24,15,40,21.90
2011,07,24,15,41,21.80
2011,07,24,15,42,21.60
2011,07,24,15,43,21.60
2011,07,24,15,44,21.60
2011,07,24,15,45,21.60
2011,07,24,15,46,21.60
2011,07,24,15,47,21.50
2011,07,24,15,48,21.40
2011,07,24,15,49,21.40
2011,07,24,15,50,21.40
2011,07,24,15,51,21.40
2011,07,24,15,52,21.40
2011,07,24,15,53,21.30
2011,07,24,15,54,21.30
2011,07,24,15,55,21.30
2011,07,24,15,56,21.30
2011,07,24,15,57,21.40
2011,07,24,15,58,21.40
2011,07,24,15,59,21.30
2011,07,24,16,00,21.30
2011,07,24,16,01,21.30
2011,07,24,16,02,21.30
2011,07,24,16,03,21.50
2011,07,24,16,04,21.60
2011,07,24,16,05,21.60
2011,07,24,16,06,21.60
2011,07,24,16,07,21.60
2011,07,24,16,08,21.60
2011,07,24,16,09,21.70
2011,07,24,16,10,21.70
2011,07,24,16,11,21.70
2011,07,24,16,12,21.70
2011,07,24,16,13,21.50
2011,07,24,16,14,21.40
2011,07,24,16,15,21.30
2011,07,24,16,16,21.30
2011,07,24,16,17,21.40
2011,07,24,16,18,21.60
2011,07,24,16,19,21.70
2011,07,24,16,20,21.90
2011,07,24,16,21,21.90
2011,07,24,16,22,21.90
2011,07,24,16,23,21.90
2011,07,24,16,24,21.90
2011,07,24,16,25,21.90
2011,07,24,16,26,21.60
2011,07,24,16,27,21.50
2011,07,24,16,28,21.30
2011,07,24,16,29,21.30
2011,07,24,16,30,21.30
2011,07,24,16,31,21.20
2011,07,24,16,32,21.20
2011,07,24,16,33,21.20
2011,07,24,16,34,21.10
2011,07,24,16,35,21.10
2011,07,24,16,36,21.00
2011,07,24,16,37,21.00
2011,07,24,16,38,21.00
2011,07,24,16,39,21.00
2011,07,24,16,40,21.00
2011,07,24,16,41,21.00
2011,07,24,16,42,21.00
2011,07,24,16,43,21.00
2011,07,24,16,44,21.00
2011,07,24,16,45,20.90
2011,07,24,16,46,20.80
2011,07,24,16,47,20.80
2011,07,24,16,48,20.80
2011,07,24,16,49,20.80
2011,07,24,16,50,20.90
2011,07,24,16,51,20.90
2011,07,24,16,52,20.90
2011,07,24,16,53,20.90
2011,07,24,16,54,21.00
2011,07,24,16,55,21.00
2011,07,24,16,56,21.10
2011,07,24,16,57,21.30
2011,07,24,16,58,21.40
2011,07,24,16,59,21.40
2011,07,24,17,00,21.50
2011,07,24,17,01,21.60
2011,07,24,17,02,21.70
2011,07,24,17,03,21.80
2011,07,24,17,04,22.00
2011,07,24,17,05,22.00
2011,07,24,17,06,22.00
2011,07,24,17,07,22.10
2011,07,24,17,08,22.10
2011,07,24,17,09,22.00
2011,07,24,17,10,22.00
2011,07,24,17,11,22.10
2011,07,24,17,12,21.90
2011,07,24,17,13,21.70
2011,07,24,17,14,21.60
2011,07,24,17,15,21.60
2011,07,24,17,16,21.50
2011,07,24,17,17,21.40
2011,07,24,17,18,21.30
2011,07,24,17,19,21.10